Location: Gniazdowice
(50.2124°N, 20.2673°E)
Time: 22:06:29
(UTC+00:00)

EXPRESS MD2 - Pass Details

Date: 23 May 2024
Orbit: 262 x 3329 km, 49.9° (Epoch: 21 June)

Event Time Altitude Azimuth Distance (km) Brightness Sun altitude
Exits shadow 01:31:57 13° 234° (SW) 1,242 4.5 -9.2°
Maximum altitude 01:34:28 56° 157° (SSE) 600 3.4 -8.9°
Drops below altitude 10° 01:39:23 10° 80° (E) 2,360 7.4 -8.4°
Sets 01:42:51 0° 77° (ENE) 3,805 8.7 -8.0°
